SCP
0 0 0 0 0 0 0 0 0 0 0 0 0 0 0 0 0 0 0 0 1 1 1 1 0 0 1 1 2 3 3 3 3 3 3 2 2 2 2 2 2 2 3
0 0 0 0 0 0 0 0 0 0 0 0 0 0 0 0 0 0 0 0 1 1 1 1 0 0 0 1 1 2 2 3 3 3 2 2 2 1 1 1 2 2 3
0 0 0 0 0 0 0 0 0 0 0 0 0 0 0 0 0 0 0 0 0 1 1 1 1 0 0 0 1 1 1 2 2 2 1 1 1 1 1 1 1 2 2
0 0 0 0 0 0 0 0 0 0 0 0 0 0 0 0 0 0 0 0 0 0 0 1 1 1 0 0 0 1 1 1 1 1 1 1 1 1 1 1 1 1 1
0 0 0 0 0 0 0 0 0 0 0 0 0 0 0 0 0 0 0 1 0 0 0 1 1 1 1 0 0 0 0 1 0 0 1 1 1 1 1 1 1 1 1
0 0 0 0 0 0 0 0 0 0 0 0 0 0 0 0 0 0 0 0 0 0 0 0 1 1 1 1 0 0 1 0 0 0 1 1 1 1 1 1 1 1 1
0 0 0 0 0 0 0 0 0 0 0 0 0 0 0 0 0 0 0 0 0 0 0 0 0 0 1 1 1 1 1 1 1 1 1 1 1 1 1 1 1 1 1
0 0 0 0 0 0 0 0 0 0 0 0 0 0 0 0 0 0 0 0 0 0 0 0 0 0 0 0 0 0 1 1 1 1 0 0 1 1 1 1 1 1 1
0 0 0 0 0 0 0 0 0 0 0 0 0 0 0 0 0 0 0 0 0 0 0 0 0 0 0 0 0 0 0 1 1 1 0 0 1 1 1 1 1 1 1
0 0 0 0 0 0 0 0 0 0 0 0 0 0 0 0 0 0 0 0 0 0 0 0 0 0 0 0 0 0 0 0 1 1 1 1 1 1 1 1 1 1 1
0 0 0 0 0 0 0 0 0 0 0 0 0 0 0 0 0 0 0 0 0 0 0 0 0 0 0 0 0 0 0 0 1 1 1 1 1 1 1 1 1 1 1
0 0 0 0 0 0 0 0 0 0 0 0 0 0 0 0 0 0 0 0 0 0 0 0 0 0 0 0 0 0 0 0 1 1 1 1 1 1 1 1 1 1 1
0 0 0 0 0 0 0 0 0 0 0 0 0 0 0 0 0 0 0 0 0 0 0 0 0 0 0 0 0 0 0 1 1 1 1 1 1 1 1 1 1 1 1
0 0 0 0 0 0 0 0 0 0 0 0 0 0 0 0 0 0 0 0 0 0 0 0 0 0 0 0 0 0 0 1 2 1 1 1 1 1 1 1 1 1 1
0 0 0 0 0 0 0 0 0 0 0 0 0 0 0 0 0 0 0 0 0 0 0 0 0 0 0 0 0 0 0 1 1 1 1 1 1 1 1 1 1 1 1
0 0 0 0 0 0 0 0 0 0 0 0 0 0 0 0 0 0 0 0 0 0 0 0 0 0 0 0 0 0 0 1 1 1 1 1 1 1 1 1 1 1 1
0 0 0 0 0 0 0 0 0 0 0 0 0 0 0 0 0 0 0 0 0 0 0 0 0 0 0 0 0 0 0 1 1 1 1 1 1 0 0 0 0 0 0
0 0 0 0 0 0 0 0 0 0 0 0 0 0 0 0 0 0 0 0 0 0 0 0 0 0 0 0 0 0 0 0 0 1 1 1 0 0 0 0 0 0 0
0 0 0 0 0 0 0 0 0 0 0 0 0 0 0 0 0 0 0 0 0 0 0 0 0 0 0 0 0 0 0 0 0 0 1 1 0 0 0 0 0 0 0
0 0 0 0 0 0 0 0 0 0 0 0 0 0 0 0 0 0 0 0 0 0 0 0 0 0 0 0 0 0 0 0 0 0 0 0 1 0 0 0 0 0 0
0 0 0 0 0 0 0 0 0 0 0 0 0 0 0 0 0 0 0 0 0 0 0 0 0 0 0 0 0 0 0 0 0 0 0 0 0 1 1 0 0 0 0
0 0 0 0 0 0 0 0 0 0 0 0 0 0 0 0 0 0 0 0 0 0 0 0 0 0 0 0 0 0 0 0 0 0 0 0 0 1 1 1 0 0 0
0 0 0 0 0 0 0 0 0 0 0 0 0 0 0 0 0 0 0 0 0 0 0 0 0 0 0 0 0 0 0 0 0 0 0 0 0 0 1 1 0 0 0
0 0 0 0 0 0 0 0 0 0 0 0 0 0 0 0 0 0 0 0 0 0 0 0 0 0 0 0 0 0 0 0 0 0 0 0 0 0 0 0 0 0 0
0 0 0 0 0 0 0 0 0 0 0 0 0 0 0 0 0 0 0 0 0 0 0 0 0 0 0 0 0 0 0 0 0 0 0 0 0 0 0 0 0 0 0
0 0 0 0 0 0 0 0 0 0 0 0 0 0 0 0 0 0 0 0 0 0 0 0 0 0 0 0 0 0 0 0 0 0 0 0 0 0 0 0 0 0 0
Wind_Speed
2 2 2 2 3 2 3 3 4 4 4 4 3 3 2 1 1 0 1 2 2 3 3 4 5 5 5 6 6 6 6 7 8 10 10 11 12 14 15 15 14 14 14
2 3 3 3 3 3 3 3 4 3 3 3 4 3 2 1 0 0 1 1 1 2 2 4 5 5 6 6 6 6 6 7 8 9 10 11 12 13 14 14 13 13 14
3 3 3 3 3 3 3 3 4 3 4 4 4 4 2 2 1 0 0 0 1 2 2 4 4 5 6 6 6 6 7 7 7 8 10 10 11 12 13 13 13 13 13
3 3 3 2 3 3 3 3 3 3 3 3 3 3 3 2 2 1 0 0 0 1 1 2 4 4 5 6 6 7 7 7 8 8 9 9 10 11 12 12 12 12 12
3 3 2 2 3 3 3 3 3 2 3 4 3 3 3 2 2 2 1 1 0 0 0 1 2 3 4 6 6 7 7 8 9 8 8 9 9 10 11 11 11 11 12
3 3 2 3 3 3 3 3 3 3 2 3 3 3 3 3 2 2 2 1 1 1 0 0 0 1 4 5 6 7 7 8 9 9 9 9 9 10 10 11 11 11 12
3 3 2 3 3 2 3 3 3 4 3 3 3 3 4 3 4 3 3 2 2 1 1 0 0 0 1 3 5 6 7 8 9 9 9 9 9 10 10 11 11 12 12
1 2 2 2 2 2 4 4 3 3 3 3 2 2 4 5 4 4 3 3 2 2 2 1 0 0 0 0 2 5 5 7 9 10 10 10 9 10 11 11 11 12 12
0 1 2 2 2 1 2 3 2 3 2 3 2 2 2 1 3 4 4 3 3 2 2 1 1 0 1 1 1 3 5 6 8 9 10 10 10 11 11 11 11 12 11
1 1 1 1 1 1 1 2 2 1 2 2 2 2 1 2 0 2 3 3 4 3 2 2 1 1 0 1 1 3 5 5 7 9 10 10 10 11 11 12 11 11 12
2 1 1 1 1 1 1 2 2 2 1 1 1 1 2 2 1 1 2 4 3 3 2 2 1 1 0 0 1 2 4 4 6 7 8 9 10 11 12 12 12 12 12
2 2 1 0 0 0 1 1 1 1 1 1 1 1 1 1 0 1 1 2 2 3 3 2 1 1 0 0 1 2 3 4 5 6 7 7 8 9 11 12 13 13 13
2 3 2 1 1 1 1 0 1 1 1 1 1 0 0 1 1 1 1 1 1 2 3 2 2 1 1 0 0 1 2 4 4 5 6 6 6 7 8 10 12 12 12
2 2 2 2 2 2 1 0 1 1 1 1 1 1 1 1 1 1 2 1 1 2 2 3 2 1 1 0 1 1 1 3 4 4 5 5 5 5 6 7 8 9 10
1 1 1 1 2 2 1 0 1 2 1 1 1 1 1 1 1 1 1 2 2 1 2 3 2 2 1 1 1 1 1 2 4 4 4 5 5 6 6 6 6 6 6
2 2 2 2 2 2 1 1 1 2 1 2 1 1 2 1 1 1 1 1 2 3 2 3 2 2 2 1 2 1 2 3 4 5 5 5 5 5 5 6 6 7 6
2 2 2 2 2 2 2 1 2 2 2 2 2 2 3 2 1 1 1 1 1 2 3 3 2 2 1 2 1 1 1 2 2 5 5 5 6 6 6 6 6 7 7
3 3 2 2 2 2 2 1 3 2 2 3 3 3 3 2 2 2 1 2 2 2 3 3 2 2 2 2 2 2 2 2 2 4 6 6 6 6 6 6 7 7 7
3 3 3 3 3 2 2 2 2 2 2 3 3 3 4 3 3 3 3 3 2 2 2 3 3 2 2 1 1 2 2 1 2 3 5 6 6 6 6 6 6 7 7
3 4 4 3 3 3 2 2 2 2 2 3 3 3 4 3 4 4 3 4 3 2 2 2 3 2 2 2 1 2 2 1 2 2 2 3 4 6 7 7 7 7 7
4 4 4 4 4 3 4 4 3 2 2 3 4 3 4 5 6 4 3 3 3 3 2 2 3 2 2 2 2 2 3 2 2 2 1 2 2 2 3 5 7 8 8
4 4 4 4 5 5 8 8 5 3 3 3 4 4 5 5 7 8 8 7 5 4 4 3 4 4 5 4 3 3 3 2 2 2 2 2 2 2 2 3 6 8 9
4 4 4 4 4 6 10 9 8 3 3 3 4 4 5 5 5 4 6 7 7 9 8 5 6 7 6 6 5 4 4 4 5 3 3 2 2 3 3 3 7 8 9
3 3 4 4 4 7 11 11 10 4 3 4 4 4 5 6 5 5 4 5 6 6 8 6 6 7 7 6 7 7 6 4 2 2 3 3 2 2 2 2 6 8 8
3 3 3 4 4 7 11 11 10 3 4 5 5 5 5 6 10 9 5 6 7 7 8 10 10 10 11 11 7 4 4 3 3 3 3 3 2 2 1 2 3 6 7
2 3 4 4 4 5 10 13 11 3 4 5 5 5 8 9 12 11 6 6 8 8 7 6 7 8 8 9 10 8 7 5 3 3 4 4 3 3 2 1 1 2 3
Wind_Direction
46 33 20 13 3 359 1 354 351 353 351 346 351 0 352 330 285 260 266 232 212 209 195 185 173 164 156 143 132 125 121 119 123 127 124 125 125 123 122 124 124 124 124
64 47 29 15 2 352 356 2 360 356 346 348 353 353 345 343 337 330 247 262 242 233 217 194 184 173 164 154 143 134 127 123 121 124 127 128 129 128 126 126 126 125 125
65 56 35 16 355 352 3 9 3 3 3 1 355 346 347 349 335 305 253 235 282 272 237 202 192 180 170 161 155 148 140 134 130 128 133 136 137 135 133 131 128 128 128
63 55 36 9 355 5 8 6 7 1 359 357 347 340 352 357 345 331 345 230 250 307 279 217 192 188 183 170 164 158 155 149 146 141 139 143 145 145 141 139 136 135 135
58 56 37 3 5 13 8 359 11 5 354 348 339 350 0 6 354 2 5 359 319 314 334 274 205 197 188 180 175 169 165 163 159 154 150 148 152 152 149 148 146 144 144
52 51 37 13 19 20 7 2 357 0 352 338 349 2 356 355 9 15 360 1 0 7 56 21 31 221 196 190 188 182 177 172 167 164 161 158 158 160 159 157 155 153 152
54 56 34 18 20 24 8 2 1 2 355 354 18 359 353 7 22 18 9 13 5 2 58 110 110 169 218 204 195 190 189 182 176 173 172 170 167 168 168 167 164 164 163
42 57 48 28 21 21 15 13 20 11 353 12 42 36 4 354 355 6 5 17 9 12 27 32 93 164 182 161 196 190 192 193 188 184 181 178 175 175 175 176 174 172 172
354 35 41 46 33 38 14 5 22 34 4 353 40 88 78 334 322 338 357 6 3 11 6 4 27 321 176 160 186 204 199 199 198 195 190 186 184 182 182 181 181 180 179
284 321 18 41 39 29 7 355 37 36 43 5 354 25 129 174 81 336 335 348 355 1 2 7 9 354 60 128 173 196 198 198 203 202 198 192 190 189 188 187 185 185 184
303 288 314 24 21 7 352 360 13 30 48 47 7 355 15 33 68 111 323 330 342 340 341 339 350 351 357 157 189 198 192 196 204 203 201 196 193 194 193 192 191 191 191
313 296 276 298 300 299 322 336 358 20 20 35 36 44 65 45 337 113 264 307 319 316 327 331 337 329 319 181 202 186 190 196 201 198 196 196 197 199 199 198 197 197 197
300 289 278 258 258 263 262 319 355 349 347 3 338 305 257 235 214 175 167 285 320 313 327 326 313 307 280 180 251 200 194 194 197 195 191 188 192 199 200 199 199 198 199
259 282 286 270 264 269 275 304 338 315 334 327 311 293 291 284 247 195 177 155 351 331 330 303 312 296 289 222 225 206 223 197 190 191 188 183 185 189 196 195 196 199 202
300 307 321 302 290 289 284 260 299 299 307 294 292 294 289 280 274 234 189 169 162 262 295 285 293 294 273 234 220 212 230 217 201 194 191 189 190 189 191 191 187 191 195
326 335 335 321 303 297 292 293 292 299 314 298 286 293 295 283 294 282 213 199 178 181 244 274 266 274 269 248 214 215 226 227 218 204 197 197 199 198 196 194 193 194 196
339 336 323 318 305 292 288 291 287 298 301 299 301 285 277 268 273 281 262 216 200 182 227 274 274 277 258 251 254 243 231 223 229 218 208 204 204 206 203 199 195 193 195
337 330 333 334 325 312 296 287 294 302 290 288 292 290 282 277 264 260 248 246 235 211 205 249 274 276 251 236 229 233 229 221 227 230 220 214 209 207 206 203 199 196 195
352 349 351 341 330 321 306 287 273 283 286 280 280 274 275 274 269 262 248 243 244 242 211 221 254 259 259 247 226 249 239 241 228 226 221 220 216 212 209 205 202 200 198
359 352 351 338 327 319 315 301 293 290 293 294 285 275 274 261 257 259 258 249 243 247 237 227 244 254 255 257 197 219 243 245 241 229 214 209 211 214 214 209 205 201 199
357 348 352 349 343 337 342 336 308 300 288 299 303 293 281 275 270 261 258 249 242 242 242 233 240 245 240 227 222 213 218 236 253 218 200 217 202 210 218 214 209 205 202
349 358 357 352 350 348 345 346 351 312 291 289 297 301 299 291 289 279 273 257 231 231 238 232 235 234 237 223 215 208 200 198 245 224 181 223 189 214 220 213 209 205 202
347 348 343 345 336 329 343 347 347 341 308 295 290 297 308 309 299 291 289 284 265 252 238 233 233 236 234 223 206 208 206 205 220 207 167 216 201 217 223 219 207 204 201
340 337 336 335 333 339 347 343 335 331 312 303 292 280 281 287 292 287 283 287 280 273 255 243 242 247 242 233 211 208 208 209 234 218 170 199 202 210 211 215 213 206 202
341 334 334 336 336 331 344 345 344 324 309 301 299 302 298 289 295 299 284 276 282 282 271 254 253 257 254 243 219 192 186 183 220 228 192 183 189 184 204 220 220 207 202
326 330 330 325 324 319 334 344 345 328 312 305 302 298 300 303 305 304 287 272 274 278 278 276 268 264 261 251 228 209 196 193 195 217 201 177 178 159 194 232 210 200 198